Simultaneous Nadir Overpasses (SNOs) Predictions

Prediction of SNOs between GOES-15 and METOP-A Satellite Orbit:

Table of predicted SNOs for the next 14.0 days since TLE Epoch: 1/11/2013
Index Date Time (GOES-15) GOES-15 Lat,Lon METOP-A Lat,Lon Distance(km) Time Diff (sec)
1 01/12/2013 18:38:51 -0.01,-135.10 0.57,-137.62 287.59 80
2 01/13/2013 18:20:50 -0.02,-135.07 -0.54,-132.62 278.27 80
3 01/15/2013 06:39:49 0.00,-134.99 -0.48,-137.22 254.33 80
4 01/16/2013 06:16:29 0.01,-134.95 0.64,-132.23 311.01 80
5 01/17/2013 18:35:17 0.00,-134.93 0.42,-136.77 209.95 80
6 01/18/2013 18:17:17 -0.01,-134.90 -0.72,-131.78 355.71 80
7 01/20/2013 06:36:14 -0.00,-134.81 -0.35,-136.36 176.99 80
8 01/21/2013 06:12:53 0.01,-134.76 0.75,-131.36 387.94 80
9 01/22/2013 18:31:41 0.00,-134.73 0.25,-135.91 134.15 80
10 01/23/2013 18:13:38 -0.00,-134.69 -0.82,-130.90 431.12 80
11 01/25/2013 06:32:36 -0.01,-134.59 -0.20,-135.49 101.77 80




NCC Satellite Simultaneous Nadir Overpasses (SNOs) Prediction Service
